Location: Chèvreville
(49.1099°N, 2.8495°E)
Time: 14:27:33
(UTC+00:00)

BlueWalker 3 - Pass Details

Date: 23 January 2026
Orbit: 451 x 461 km, 53.2° (Epoch: 16 February)

Event Time Altitude Azimuth Distance (km) Brightness Sun altitude
Rises 17:44:32 0° 216° (SW) 2,447 6.3 -11.9°
Reaches altitude 10° 17:46:47 10° 206° (SSW) 1,577 5.1 -12.3°
Maximum altitude 17:49:59 32° 142° (SE) 793 2.7 -12.8°
Enters shadow 17:51:36 21° 95° (E) 1,054 3.0 -13.1°
